Tracking 32932 objects as of 15-Jan-2026
HD Live streaming from Space Station
objects crossing your sky now

STARLINK-6138

Track STARLINK-6138 now!
10-day predictions
STARLINK-6138 is classified as:


NORAD ID: 57329
Int'l Code: 2023-099B
Perigee: 565.3 km
Apogee: 567.1 km
Inclination: 43.0 °
Period: 95.8 minutes
Semi major axis: 6937 km
RCS: Unknown
Launch date: July 16, 2023
Source: United States (US)
Launch site: AIR FORCE EASTERN TEST RANGE (AFETR)
Your satellite tracking list
Your tracking list is empty




NASA's NSSDC Master Catalog

Two Line Element Set (TLE):
1 57329U 23099B   26014.50658475 -.00000588  00000-0 -28465-4 0  9994
2 57329  43.0019 183.5918 0001279 261.7070  98.3627 15.02541032137966
Source of the keplerian elements: AFSPC